Temp
24 22 19 21 21 22 24 25 24 26 27 25 25 24 24 24 25 24 25 25 26 26 26 25 25 24 24 23 23 23 22 21 21 21 21 21 21 21 21 22 22 22 21 21
21 21 21 25 26 24 24 23 23 23 25 25 22 22 21 22 22 23 23 25 25 25 25 25 25 24 24 24 23 23 22 21 21 21 21 21 21 21 21 22 22 21 20 20
22 24 24 24 24 24 23 23 23 24 23 22 21 22 20 22 21 22 23 25 26 26 24 25 25 24 24 24 24 23 23 22 21 21 21 21 21 21 21 21 22 21 20 19
21 24 24 22 23 24 20 24 25 24 22 22 21 21 20 20 20 20 22 24 25 25 24 24 25 25 24 24 24 23 23 22 21 21 21 21 20 20 20 21 21 20 20 20
25 25 23 23 24 22 23 25 25 25 23 21 21 19 20 18 19 21 21 21 23 23 23 23 24 26 25 25 24 24 23 22 21 21 20 21 20 20 20 21 21 20 20 20
22 26 26 27 27 25 25 24 22 22 19 20 22 21 20 18 20 21 20 20 22 23 23 23 23 25 25 25 24 23 23 22 21 21 20 20 20 20 21 21 21 20 19 20
24 25 27 27 23 23 22 20 21 22 20 21 20 20 21 20 20 20 18 20 21 23 24 22 24 24 25 25 24 23 22 22 21 21 20 20 20 20 20 20 20 20 20 19
24 25 26 25 26 27 24 22 21 23 22 21 20 20 22 21 19 20 20 22 24 25 22 22 22 24 23 24 23 22 22 22 21 21 20 20 20 20 19 19 20 19 19 18
22 25 26 25 22 25 23 22 23 24 23 20 19 21 20 19 18 19 18 17 19 21 17 18 22 24 24 23 22 22 23 21 21 21 20 21 21 19 18 19 19 18 18 15
24 26 25 28 26 25 25 26 25 22 25 25 21 22 21 18 18 18 18 17 17 17 17 17 18 21 23 23 23 22 21 21 21 20 21 19 17 18 18 18 17 16 15 15
23 23 26 27 25 26 24 23 24 22 20 22 22 22 22 20 18 17 16 16 16 17 16 17 17 17 18 21 21 21 22 21 19 18 17 17 17 17 16 16 15 14 15 15
26 20 23 27 26 27 25 25 21 20 22 19 19 20 17 19 18 17 15 16 16 16 16 16 17 17 17 17 17 17 16 17 17 16 16 16 16 15 15 15 14 14 14 14
27 21 20 21 23 24 26 25 23 20 17 21 20 20 19 19 17 15 15 15 15 15 16 16 16 15 15 15 15 15 15 16 15 15 15 15 15 15 15 14 14 14 14 14
26 19 21 20 21 22 24 24 25 22 20 20 20 19 18 18 15 15 15 15 15 16 15 15 15 15 15 14 15 14 14 14 14 14 13 13 14 15 14 14 14 14 13 13
22 23 24 23 23 24 25 24 24 24 23 23 23 20 18 18 16 15 15 15 15 14 14 15 15 14 14 14 14 14 13 13 13 13 13 12 12 13 13 13 13 13 14 14
20 22 23 23 24 24 24 24 23 24 25 24 19 18 16 16 16 16 17 16 15 15 15 15 14 15 14 14 14 13 13 12 13 12 12 12 13 13 13 14 13 13 13 13
22 21 20 20 22 23 22 23 23 23 21 21 19 17 16 16 16 16 16 16 16 17 17 16 16 15 15 15 14 14 14 13 13 12 12 13 13 14 14 14 13 13 13 12
22 19 16 19 20 21 22 22 24 20 19 17 17 17 17 16 17 17 17 17 17 18 18 16 17 16 16 15 15 14 14 14 14 13 13 13 13 13 13 13 12 12 12 12
19 17 19 20 18 20 22 23 23 23 19 19 16 15 15 16 16 17 17 17 17 18 18 18 17 16 15 15 15 15 14 14 14 13 13 13 13 13 12 12 12 12 12 12
19 17 18 18 20 20 20 21 23 21 17 18 17 16 15 15 14 13 19 18 20 19 18 18 17 16 16 15 15 15 14 14 13 14 13 13 13 12 12 12 12 12 12 12
18 17 19 18 19 19 20 20 23 20 19 18 17 16 16 13 19 21 21 18 17 18 17 18 17 16 16 15 15 14 15 14 14 13 13 13 12 12 12 12 12 12 12 12
18 18 16 15 17 19 20 22 22 19 19 18 17 18 17 19 21 20 20 19 19 18 18 18 17 16 16 15 15 15 15 15 14 14 13 13 13 12 12 12 12 12 12 12
19 18 18 16 16 18 20 20 22 22 21 19 16 17 20 21 21 20 20 18 17 18 18 18 18 16 16 15 16 16 16 15 14 14 13 13 13 12 12 12 12 12 12 12
20 20 17 17 18 18 19 20 22 17 20 21 17 21 22 22 21 20 18 18 18 17 17 17 17 16 16 16 17 16 15 15 14 14 14 13 13 13 13 13 13 13 13 13
18 18 15 15 16 18 19 19 20 20 21 21 22 22 22 20 19 20 19 19 19 19 18 17 18 17 17 17 17 16 16 15 14 14 14 13 13 13 13 13 13 14 14 14
18 16 16 15 19 17 19 17 17 20 20 21 22 21 21 21 21 19 20 20 19 19 18 18 17 17 17 17 17 16 15 15 14 14 14 13 13 13 13 13 14 14 15 15
Height
1522 1531 1548 1540 1541 1538 1533 1530 1531 1521 1517 1526 1526 1526 1528 1528 1528 1532 1533 1530 1530 1530 1530 1535 1540 1543 1546 1549 1553 1556 1560 1563 1565 1566 1567 1570 1572 1574 1576 1576 1579 1580 1580 1582
1529 1539 1535 1530 1527 1530 1533 1534 1532 1527 1523 1521 1530 1533 1529 1526 1521 1524 1527 1526 1528 1531 1532 1533 1535 1538 1541 1544 1548 1552 1556 1560 1564 1566 1568 1570 1572 1572 1572 1573 1573 1574 1576 1579
1529 1529 1529 1526 1529 1533 1527 1531 1529 1529 1526 1528 1537 1538 1533 1525 1521 1512 1515 1517 1520 1526 1531 1530 1531 1533 1538 1541 1544 1546 1550 1555 1560 1566 1568 1569 1570 1570 1571 1570 1569 1571 1575 1576
1522 1516 1523 1529 1530 1520 1537 1511 1513 1526 1535 1549 1542 1558 1537 1522 1518 1514 1511 1513 1517 1522 1528 1533 1527 1530 1532 1535 1541 1544 1548 1550 1554 1559 1562 1565 1566 1566 1567 1569 1568 1568 1570 1571
1517 1510 1523 1526 1522 1525 1522 1517 1519 1525 1535 1541 1540 1553 1526 1520 1520 1512 1510 1516 1517 1520 1524 1529 1526 1521 1526 1532 1537 1540 1544 1548 1553 1558 1561 1561 1562 1562 1562 1563 1564 1565 1566 1565
1513 1512 1511 1507 1508 1513 1515 1518 1528 1530 1542 1558 1529 1535 1529 1524 1507 1509 1513 1512 1512 1514 1519 1520 1523 1520 1524 1528 1535 1541 1543 1546 1550 1553 1556 1558 1558 1559 1559 1559 1559 1560 1559 1559
1510 1508 1503 1502 1519 1516 1518 1525 1551 1552 1557 1555 1534 1539 1518 1511 1505 1506 1512 1513 1516 1518 1516 1517 1523 1524 1524 1524 1528 1535 1542 1545 1547 1549 1551 1553 1553 1552 1553 1553 1555 1556 1555 1555
1523 1531 1504 1498 1500 1506 1511 1518 1543 1553 1553 1544 1533 1541 1512 1503 1506 1508 1508 1509 1508 1504 1508 1510 1521 1518 1519 1521 1527 1527 1536 1543 1543 1545 1547 1546 1548 1549 1549 1549 1551 1551 1550 1551
1524 1520 1495 1493 1497 1500 1515 1523 1499 1522 1523 1542 1535 1518 1508 1506 1512 1512 1516 1513 1507 1511 1515 1513 1512 1513 1513 1517 1521 1521 1527 1534 1541 1542 1541 1540 1542 1543 1545 1545 1546 1548 1547 1549
1498 1516 1496 1491 1494 1495 1500 1496 1517 1523 1537 1536 1531 1520 1516 1510 1512 1513 1517 1513 1513 1518 1517 1514 1509 1509 1509 1513 1517 1519 1524 1532 1535 1537 1537 1538 1540 1540 1542 1543 1544 1545 1547 1547
1493 1506 1506 1495 1502 1505 1506 1513 1510 1514 1528 1540 1538 1522 1493 1496 1498 1508 1513 1509 1512 1513 1517 1515 1514 1511 1511 1512 1517 1520 1527 1529 1529 1531 1535 1537 1540 1539 1541 1541 1544 1544 1548 1547
1491 1511 1522 1505 1491 1489 1492 1503 1514 1537 1532 1531 1532 1523 1497 1495 1495 1503 1509 1508 1511 1512 1514 1515 1513 1515 1518 1520 1522 1525 1527 1529 1530 1535 1538 1539 1537 1536 1538 1541 1544 1544 1547 1548
1489 1515 1536 1524 1506 1494 1497 1497 1502 1512 1524 1527 1536 1524 1499 1502 1506 1509 1507 1509 1512 1515 1517 1517 1518 1520 1522 1524 1526 1527 1530 1531 1536 1537 1538 1536 1536 1536 1539 1541 1542 1544 1545 1546
1486 1510 1521 1540 1524 1511 1508 1499 1496 1504 1524 1522 1518 1511 1504 1503 1505 1506 1509 1512 1515 1518 1520 1520 1521 1521 1523 1524 1526 1528 1529 1533 1537 1535 1535 1535 1534 1536 1538 1540 1542 1543 1544 1545
1494 1512 1506 1506 1504 1501 1501 1501 1498 1502 1500 1506 1495 1499 1492 1493 1500 1505 1508 1511 1515 1517 1518 1520 1521 1524 1526 1527 1527 1531 1532 1535 1537 1534 1533 1534 1534 1537 1538 1540 1542 1543 1544 1546
1497 1511 1504 1509 1499 1496 1500 1496 1493 1491 1488 1488 1494 1499 1495 1496 1500 1502 1506 1509 1511 1512 1512 1514 1521 1525 1527 1530 1528 1530 1532 1532 1534 1533 1534 1535 1535 1538 1540 1541 1543 1544 1545 1547
1498 1505 1513 1522 1501 1499 1512 1497 1492 1491 1488 1486 1501 1495 1495 1499 1500 1501 1503 1503 1501 1501 1502 1503 1507 1516 1526 1530 1529 1528 1530 1531 1534 1535 1536 1537 1537 1539 1541 1541 1543 1545 1546 1547
1495 1505 1514 1519 1509 1526 1497 1485 1482 1492 1494 1492 1494 1494 1494 1494 1498 1500 1500 1500 1497 1495 1496 1500 1503 1513 1521 1528 1531 1528 1529 1534 1535 1536 1538 1537 1538 1541 1541 1542 1545 1547 1547 1547
1487 1500 1510 1517 1524 1509 1493 1488 1489 1489 1503 1497 1496 1501 1504 1502 1501 1499 1497 1499 1502 1500 1501 1506 1507 1514 1519 1527 1531 1529 1530 1534 1536 1538 1538 1538 1540 1541 1542 1544 1546 1547 1547 1547
1488 1493 1505 1515 1517 1521 1501 1487 1481 1482 1511 1498 1493 1494 1494 1504 1509 1491 1491 1497 1502 1502 1505 1506 1509 1514 1520 1525 1527 1528 1532 1534 1536 1538 1539 1539 1540 1541 1542 1544 1546 1546 1545 1546
1506 1506 1508 1512 1513 1505 1487 1482 1478 1500 1505 1485 1484 1488 1491 1495 1486 1484 1490 1496 1500 1501 1505 1510 1511 1515 1520 1525 1527 1529 1531 1534 1537 1538 1538 1538 1539 1541 1542 1543 1543 1543 1544 1544
1508 1512 1516 1518 1518 1515 1485 1482 1488 1488 1484 1491 1486 1484 1483 1484 1485 1488 1492 1494 1497 1501 1505 1507 1509 1515 1520 1525 1528 1528 1530 1534 1536 1536 1536 1537 1539 1540 1540 1540 1540 1541 1541 1540
1506 1498 1504 1508 1506 1487 1484 1482 1480 1480 1482 1485 1492 1485 1482 1482 1485 1488 1491 1495 1499 1501 1505 1507 1510 1515 1520 1523 1525 1526 1529 1532 1534 1535 1536 1536 1537 1537 1537 1537 1538 1537 1537 1536
1491 1488 1494 1497 1490 1486 1484 1482 1478 1483 1482 1477 1482 1484 1481 1480 1485 1488 1491 1494 1496 1500 1504 1507 1509 1514 1517 1520 1523 1526 1528 1530 1532 1533 1534 1534 1535 1535 1535 1535 1534 1533 1533 1532
1490 1488 1494 1493 1486 1484 1484 1479 1478 1477 1476 1478 1480 1479 1480 1482 1486 1489 1492 1495 1496 1498 1502 1505 1508 1511 1514 1517 1521 1523 1525 1528 1529 1531 1531 1532 1532 1531 1531 1531 1530 1529 1528 1527
1485 1488 1494 1495 1484 1484 1484 1482 1479 1482 1484 1486 1477 1481 1483 1484 1486 1489 1492 1494 1497 1499 1501 1504 1506 1509 1512 1515 1517 1520 1523 1525 1526 1527 1528 1528 1528 1527 1526 1526 1525 1524 1523 1522
Wind_Speed
4 6 6 4 10 8 6 3 5 5 6 2 5 4 3 11 10 9 10 19 29 26 36 32 29 26 24 23 24 22 18 16 19 30 30 22 17 13 13 11 10 7 12 14
4 5 4 1 4 3 3 4 5 4 4 4 14 7 1 6 9 10 10 13 17 13 33 36 34 30 29 26 26 23 19 19 15 14 29 23 16 11 11 18 14 11 20 19
5 10 8 9 4 1 9 4 4 4 3 12 5 6 4 3 12 20 18 21 22 20 24 38 36 34 31 30 29 27 22 23 21 17 20 25 20 14 11 11 17 16 20 15
4 4 15 10 4 7 1 9 13 9 4 3 2 4 7 9 5 9 23 23 27 16 8 34 40 36 35 33 31 28 22 26 25 23 19 21 22 17 16 15 13 19 20 18
6 3 11 9 9 8 9 10 1 3 4 6 5 3 7 5 5 10 14 8 11 6 13 15 42 42 38 33 34 30 25 28 28 25 21 23 24 21 19 17 16 15 17 21
8 4 3 5 4 20 2 4 3 3 3 3 5 4 4 5 6 5 11 9 8 15 20 26 43 44 40 35 31 33 29 29 30 28 26 24 24 20 19 20 21 21 23 24
3 3 4 1 9 5 6 4 2 3 1 6 2 5 9 5 3 14 17 15 7 4 25 21 35 38 45 42 33 33 37 32 33 32 29 26 28 26 23 23 19 19 21 22
4 5 7 4 5 5 2 6 5 6 5 3 2 6 6 4 14 20 28 24 18 15 42 36 27 47 47 43 41 40 41 38 35 32 28 27 27 26 24 21 8 11 13 15
7 6 2 5 5 5 3 5 8 3 2 3 5 4 4 2 3 13 14 19 21 20 18 18 25 35 35 37 40 43 41 39 34 31 28 21 23 20 17 10 5 5 8 7
7 2 6 2 4 5 6 1 4 3 2 4 3 3 5 9 8 2 4 18 20 11 9 8 18 26 34 35 40 35 34 35 33 31 25 19 16 11 9 7 4 7 7 7
4 3 5 4 4 4 5 4 2 2 5 5 2 5 6 11 11 14 11 15 16 16 8 9 9 14 20 26 32 34 30 28 26 20 16 13 11 8 8 6 8 9 7 5
2 5 0 4 3 4 5 5 5 4 8 2 4 5 7 7 13 21 18 19 17 13 13 11 12 11 11 16 22 23 21 16 12 11 10 11 10 10 11 10 11 9 5 4
3 1 3 10 9 4 4 1 5 4 3 1 4 5 3 6 9 11 17 18 17 17 17 16 13 14 12 15 14 12 9 9 10 11 9 10 12 14 12 12 9 5 4 4
6 3 6 6 8 3 7 9 4 4 2 3 6 4 5 7 7 14 14 13 11 11 13 12 11 11 11 12 11 8 8 8 8 10 9 11 12 11 11 9 6 5 4 3
5 2 1 4 6 2 2 5 9 4 7 4 5 10 11 13 12 12 14 12 10 10 10 10 10 12 11 11 9 8 8 8 6 10 9 9 10 10 7 6 6 6 7 6
3 2 1 3 6 6 3 7 7 7 4 2 7 2 4 20 21 20 17 16 16 15 13 14 13 12 12 10 7 10 12 9 8 8 6 7 9 9 9 8 8 9 8 5
1 3 2 6 6 5 5 7 9 6 2 4 6 4 9 10 11 20 23 24 26 23 22 22 21 16 11 8 7 7 12 11 9 8 8 8 8 8 7 7 6 5 5 4
2 2 4 5 2 3 8 6 5 9 5 11 13 11 8 15 18 19 23 26 29 27 25 23 21 17 13 9 8 10 12 11 9 8 7 5 5 6 7 6 5 4 3 3
4 4 1 2 2 5 5 6 3 3 2 7 12 6 5 12 11 14 23 24 26 20 17 15 15 17 15 13 12 12 11 9 8 6 3 1 4 6 4 3 2 1 3 5
5 4 4 1 1 4 5 8 13 7 1 9 17 21 22 13 4 7 25 19 17 14 15 15 16 17 17 18 15 11 11 9 8 4 2 4 5 5 4 5 5 4 7 10
4 4 2 1 2 4 5 10 13 6 6 26 30 27 28 8 15 3 25 25 19 14 19 17 18 20 21 18 15 14 10 9 7 7 6 6 4 6 8 10 10 11 12 14
3 1 2 2 2 6 4 7 4 6 6 16 27 35 40 23 12 13 19 15 18 18 24 20 21 22 20 18 17 17 15 11 10 8 8 7 8 10 8 8 6 11 13 13
2 5 4 6 5 6 3 8 11 8 11 20 21 31 25 17 17 18 22 19 19 20 21 16 20 23 23 21 21 18 13 12 10 8 7 7 6 7 7 9 10 13 13 13
4 2 3 3 5 8 11 15 18 11 13 16 36 26 20 20 19 22 21 21 22 24 20 24 24 22 22 22 21 16 14 12 10 8 7 8 9 7 8 10 13 15 16 15
5 4 4 3 6 8 4 8 14 16 9 18 16 16 19 24 25 24 25 20 15 17 21 23 20 22 18 19 21 18 15 15 14 12 9 8 9 10 13 15 17 18 15 17
2 4 3 4 6 3 4 8 3 6 5 16 23 20 17 21 24 28 26 22 17 20 21 22 19 20 17 15 16 16 15 15 15 15 14 13 13 15 17 15 12 11 12 14
Wind_Direction
357 61 88 102 203 239 287 278 181 221 358 343 236 217 274 118 90 357 291 220 209 203 186 186 188 192 196 199 201 210 205 185 198 205 201 193 190 189 190 212 218 227 211 209
34 108 134 97 22 183 237 232 248 7 75 108 25 342 343 55 162 217 253 228 215 218 187 187 189 194 200 201 206 213 215 200 195 198 201 198 194 208 222 214 231 209 197 205
146 156 124 85 87 141 259 242 200 140 19 70 42 309 327 251 227 217 219 213 208 228 203 189 193 197 202 204 210 214 216 209 206 200 196 211 205 212 226 229 235 210 196 203
279 137 158 142 163 183 328 249 257 123 96 150 134 273 243 224 248 273 243 218 216 211 198 207 198 198 208 214 215 214 219 214 207 203 200 195 200 219 236 228 216 203 212 220
257 254 155 205 228 177 231 347 358 149 188 133 211 158 262 44 270 247 250 246 242 233 230 253 211 209 213 215 215 216 219 217 215 209 205 207 212 222 228 238 237 232 240 234
257 59 299 220 38 188 70 4 328 63 77 328 231 128 255 205 216 121 48 33 338 312 291 271 224 210 211 213 221 222 218 215 214 214 217 220 220 228 235 241 246 247 243 254
329 291 203 144 127 159 172 114 31 337 120 224 148 116 252 169 143 132 117 102 129 298 278 278 226 215 214 210 213 220 219 216 213 215 216 220 229 236 243 247 257 264 262 257
165 298 198 176 177 213 48 140 171 206 218 235 337 227 254 102 139 138 147 151 154 159 235 252 259 221 216 215 210 216 216 216 214 214 215 218 227 235 239 248 258 261 256 256
167 249 275 189 148 165 143 177 191 210 13 110 202 279 281 147 155 115 141 137 137 166 243 258 250 221 213 208 210 216 217 214 213 215 220 233 233 229 217 240 250 247 235 223
216 81 229 79 104 259 200 351 354 16 259 274 264 262 235 197 165 94 220 113 122 136 131 126 184 195 201 206 212 211 216 212 214 218 229 233 213 208 228 229 206 182 181 182
100 99 281 135 185 178 6 15 284 140 145 215 202 251 322 186 167 154 145 110 111 116 115 100 136 169 176 185 192 201 215 220 207 217 216 207 207 222 208 185 173 166 182 178
287 128 57 264 243 207 148 165 118 96 308 293 178 286 344 127 143 142 131 121 123 126 133 133 127 142 166 158 172 182 179 186 195 202 205 212 217 199 178 169 165 157 176 223
199 42 25 343 347 5 51 358 148 146 110 264 96 271 41 71 88 119 121 124 126 131 140 142 135 133 136 139 147 155 159 170 193 203 208 193 175 168 172 173 169 184 221 228
93 104 150 192 219 211 312 341 5 115 114 207 206 211 237 207 133 117 118 118 125 139 146 147 138 142 150 155 150 163 165 174 200 176 174 180 173 172 169 170 198 217 200 180
80 33 18 238 237 208 234 328 328 335 251 185 246 192 211 184 140 129 121 116 124 135 147 165 163 156 156 164 162 170 172 157 148 161 163 162 156 158 172 176 167 160 156 149
12 289 147 279 290 328 319 316 324 322 307 121 127 270 325 115 130 136 154 163 161 165 164 161 161 162 167 177 182 182 171 157 141 137 139 160 158 153 154 154 159 156 146 137
167 122 59 274 275 341 352 285 283 283 359 264 186 160 132 122 147 170 176 179 175 172 175 172 161 163 182 185 190 183 171 160 156 152 147 135 135 143 139 132 130 135 134 124
251 101 139 252 31 298 251 295 243 95 41 80 102 140 150 150 166 183 194 191 187 178 173 164 159 168 170 185 184 151 144 149 151 151 149 136 135 139 123 116 112 113 83 55
110 107 168 140 184 285 339 10 337 161 77 155 122 106 98 146 162 208 203 215 209 190 174 172 168 173 174 188 176 149 145 155 167 170 157 143 178 165 147 137 150 175 339 310
75 90 117 71 164 232 246 303 332 122 109 191 151 162 161 174 179 240 200 191 188 185 195 175 164 172 182 182 173 159 170 188 205 222 199 187 187 197 227 242 252 269 257 270
352 333 195 208 208 283 221 308 336 111 257 186 185 181 166 197 200 200 171 179 191 190 186 184 176 182 184 188 183 186 190 207 220 223 216 203 231 241 258 259 260 269 268 276
201 170 315 62 79 295 336 327 130 180 6 200 201 184 187 214 213 163 171 177 194 181 193 193 187 188 190 193 199 198 195 186 207 220 217 239 250 259 264 232 249 257 266 286
288 177 200 167 220 258 276 265 298 230 187 183 247 211 202 193 183 184 191 194 198 185 200 197 192 191 195 203 200 194 187 196 206 219 231 242 254 259 258 249 254 265 279 277
306 117 137 86 257 258 277 292 296 14 312 175 214 197 176 179 182 185 189 184 175 183 191 198 190 199 202 204 205 208 205 207 213 223 234 237 249 266 275 276 276 277 282 283
230 118 165 257 294 314 90 344 279 323 122 162 175 186 178 176 177 181 179 200 207 197 195 201 211 209 209 211 216 218 221 222 226 235 245 243 258 277 281 285 287 287 285 281
148 172 139 233 236 204 305 4 295 250 322 173 134 128 164 176 185 185 191 191 191 195 199 208 214 210 205 211 220 217 219 232 234 239 250 254 266 275 273 272 278 281 286 292